When you browse on this site, cookies collect data to enhance your experience and personalize the content and advertising you see.
Visit our Privacy Policy to learn more. By continuing to use the site, you agree to this use of cookies and data.
  • In France
  • List of Countries
  • For 7 days
  • Water Temperature
  • Satellite Maps
  • Weather Map
  • Weather Widgets
  • user-avatar
    Login

    Hourly Weather Tirana

    Today, 23 January, Wednesday

    Time Temperature Precipitation Wind Pressure Humidity
    00:00 +7°C° 0.9 mm 4 mps 745 mmHg 88%
    01:00 +6°C° 0 mm 5 mps 745 mmHg 90%
    02:00 +6°C° 1.1 mm 4 mps 745 mmHg 90%
    03:00 +6°C° 1.1 mm 4 mps 744 mmHg 90%
    04:00 +6°C° 1.1 mm 4 mps 744 mmHg 90%
    05:00 +6°C° 0.6 mm 4 mps 744 mmHg 87%
    06:00 +6°C° 0.6 mm 4 mps 743 mmHg 85%
    07:00 +6°C° 0 mm 4 mps 743 mmHg 84%
    08:00 +7°C° 0.2 mm 4 mps 743 mmHg 81%
    09:00 +8°C° 0.2 mm 4 mps 743 mmHg 77%
    10:00 +9°C° 0.2 mm 5 mps 743 mmHg 74%
    11:00 +10°C° 0.2 mm 4 mps 742 mmHg 73%
    12:00 +10°C° 0.2 mm 4 mps 741 mmHg 71%
    13:00 +11°C° 0.2 mm 3 mps 741 mmHg 70%
    14:00 +10°C° 0.3 mm 3 mps 740 mmHg 75%
    15:00 +9°C° 0.3 mm 2 mps 740 mmHg 79%
    16:00 +8°C° 0.3 mm 2 mps 739 mmHg 84%
    17:00 +9°C° 0.1 mm 1 mps 739 mmHg 85%
    18:00 +9°C° 0.1 mm 1 mps 738 mmHg 86%
    19:00 +8°C° 0.1 mm 0 mps 738 mmHg 86%
    20:00 +7°C° 0.2 mm 0 mps 738 mmHg 87%
    21:00 +7°C° 0.2 mm 0 mps 738 mmHg 89%
    22:00 +7°C° 0.2 mm 0 mps 738 mmHg 90%
    23:00 +7°C° 0.2 mm 0 mps 737 mmHg 90%

    Tomorrow, 24 January, Thursday

    Time Temperature Precipitation Wind Pressure Humidity
    00:00 +8°C° 0.2 mm 1 mps 737 mmHg 90%
    01:00 +8°C° 0.2 mm 1 mps 737 mmHg 91%
    02:00 +8°C° 0.1 mm 1 mps 737 mmHg 91%
    03:00 +6°C° 0.1 mm 2 mps 737 mmHg 92%
    04:00 +6°C° 0.1 mm 2 mps 736 mmHg 92%
    05:00 +5°C° 0.2 mm 3 mps 737 mmHg 92%
    06:00 +5°C° 0.2 mm 3 mps 737 mmHg 93%
    07:00 +5°C° 0.2 mm 3 mps 737 mmHg 93%
    08:00 +7°C° 0 mm 3 mps 737 mmHg 85%
    09:00 +7°C° 0 mm 4 mps 738 mmHg 77%
    10:00 +8°C° 0 mm 4 mps 738 mmHg 69%
    11:00 +10°C° 0 mm 3 mps 738 mmHg 63%
    12:00 +11°C° 0 mm 3 mps 738 mmHg 56%
    13:00 +12°C° 0 mm 3 mps 738 mmHg 49%
    14:00 +11°C° 0 mm 3 mps 738 mmHg 53%
    15:00 +11°C° 0 mm 3 mps 737 mmHg 57%
    16:00 +10°C° 0 mm 3 mps 737 mmHg 61%
    17:00 +8°C° 0 mm 4 mps 737 mmHg 64%
    18:00 +7°C° 0 mm 5 mps 737 mmHg 68%
    19:00 +6°C° 0 mm 5 mps 737 mmHg 71%
    20:00 +5°C° 0 mm 6 mps 737 mmHg 70%
    21:00 +5°C° 0 mm 6 mps 737 mmHg 68%
    22:00 +5°C° 0 mm 7 mps 736 mmHg 66%
    23:00 +5°C° 0.1 mm 6 mps 736 mmHg 66%

    Day after tomorrow, 25 January, Friday

    Time Temperature Precipitation Wind Pressure Humidity
    00:00 +5°C° 0.1 mm 6 mps 736 mmHg 66%
    01:00 +5°C° 0.1 mm 6 mps 736 mmHg 66%
    02:00 +6°C° 0.5 mm 5 mps 736 mmHg 70%
    03:00 +6°C° 0.5 mm 4 mps 736 mmHg 74%
    04:00 +5°C° 0.5 mm 3 mps 736 mmHg 77%
    05:00 +5°C° 0.1 mm 4 mps 736 mmHg 77%
    06:00 +5°C° 0.1 mm 4 mps 737 mmHg 76%
    07:00 +5°C° 0.1 mm 5 mps 737 mmHg 75%
    08:00 +5°C° 0 mm 5 mps 738 mmHg 73%
    09:00 +6°C° 0 mm 4 mps 738 mmHg 71%
    10:00 +7°C° 0 mm 4 mps 738 mmHg 69%
    11:00 +8°C° 0 mm 4 mps 738 mmHg 67%
    12:00 +8°C° 0 mm 4 mps 738 mmHg 64%
    13:00 +10°C° 0 mm 4 mps 738 mmHg 61%
    14:00 +10°C° 0 mm 4 mps 738 mmHg 64%
    15:00 +8°C° 0 mm 5 mps 738 mmHg 66%
    16:00 +8°C° 0 mm 5 mps 738 mmHg 68%
    17:00 +7°C° 0 mm 5 mps 739 mmHg 70%
    18:00 +6°C° 0 mm 5 mps 739 mmHg 71%
    19:00 +6°C° 0 mm 5 mps 740 mmHg 72%
    20:00 +5°C° 0 mm 4 mps 740 mmHg 72%
    21:00 +4°C° 0 mm 4 mps 740 mmHg 72%
    22:00 +4°C° 0 mm 4 mps 741 mmHg 72%
    23:00 +4°C° 0 mm 4 mps 741 mmHg 72%

    26 January, Saturday

    Time Temperature Precipitation Wind Pressure Humidity
    00:00 +3°C° 0 mm 4 mps 741 mmHg 71%
    01:00 +2°C° 0 mm 5 mps 741 mmHg 70%
    02:00 +3°C° 0 mm 4 mps 741 mmHg 69%
    03:00 +3°C° 0 mm 4 mps 741 mmHg 69%
    04:00 +3°C° 0 mm 4 mps 741 mmHg 68%
    05:00 +1°C° 0 mm 4 mps 742 mmHg 68%
    06:00 +1°C° 0 mm 4 mps 742 mmHg 68%
    07:00 +1°C° 0 mm 4 mps 742 mmHg 67%
    08:00 +3°C° 0 mm 4 mps 742 mmHg 63%
    09:00 +5°C° 0 mm 4 mps 743 mmHg 58%
    10:00 +6°C° 0 mm 4 mps 743 mmHg 54%
    11:00 +7°C° 0 mm 4 mps 743 mmHg 51%
    12:00 +8°C° 0 mm 4 mps 743 mmHg 48%
    13:00 +10°C° 0 mm 4 mps 743 mmHg 46%
    14:00 +10°C° 0 mm 4 mps 743 mmHg 50%
    15:00 +10°C° 0 mm 4 mps 743 mmHg 55%
    16:00 +8°C° 0 mm 4 mps 744 mmHg 59%
    17:00 +7°C° 0 mm 4 mps 744 mmHg 62%
    18:00 +6°C° 0 mm 4 mps 745 mmHg 65%
    19:00 +4°C° 0 mm 4 mps 745 mmHg 68%
    20:00 +4°C° 0 mm 4 mps 745 mmHg 68%
    21:00 +3°C° 0 mm 4 mps 746 mmHg 68%
    22:00 +3°C° 0 mm 3 mps 746 mmHg 68%
    23:00 +3°C° 0 mm 3 mps 746 mmHg 68%

    27 January, Sunday

    Time Temperature Precipitation Wind Pressure Humidity
    00:00 +2°C° 0 mm 3 mps 746 mmHg 67%
    01:00 +2°C° 0 mm 3 mps 746 mmHg 67%
    02:00 +3°C° 0 mm 2 mps 746 mmHg 66%
    03:00 +2°C° 0 mm 2 mps 746 mmHg 66%
    04:00 +2°C° 0 mm 2 mps 746 mmHg 65%
    05:00 +2°C° 0 mm 2 mps 746 mmHg 65%
    06:00 +2°C° 0 mm 2 mps 746 mmHg 65%
    07:00 +2°C° 0 mm 2 mps 746 mmHg 64%
    08:00 +4°C° 0 mm 2 mps 746 mmHg 59%
    09:00 +6°C° 0 mm 1 mps 746 mmHg 54%
    10:00 +8°C° 0 mm 1 mps 746 mmHg 48%
    11:00 +9°C° 0 mm 1 mps 746 mmHg 47%
    12:00 +10°C° 0 mm 1 mps 745 mmHg 45%
    13:00 +10°C° 0 mm 1 mps 745 mmHg 44%
    14:00 +10°C° 0 mm 1 mps 745 mmHg 48%
    15:00 +10°C° 0 mm 1 mps 745 mmHg 52%
    16:00 +9°C° 0 mm 1 mps 745 mmHg 55%
    17:00 +8°C° 0 mm 1 mps 745 mmHg 58%
    18:00 +7°C° 0 mm 1 mps 746 mmHg 60%
    19:00 +6°C° 0 mm 1 mps 746 mmHg 62%
    20:00 +5°C° 0 mm 2 mps 747 mmHg 63%
    21:00 +4°C° 0 mm 3 mps 747 mmHg 63%
    22:00 +3°C° 0 mm 4 mps 747 mmHg 64%
    23:00 +3°C° 0 mm 4 mps 747 mmHg 63%

    28 January, Monday

    Time Temperature Precipitation Wind Pressure Humidity
    00:00 +2°C° 0 mm 5 mps 747 mmHg 63%
    01:00 +2°C° 0 mm 5 mps 747 mmHg 63%
    02:00 +2°C° 0 mm 5 mps 747 mmHg 64%
    03:00 +2°C° 0 mm 5 mps 747 mmHg 65%
    04:00 +2°C° 0 mm 6 mps 746 mmHg 65%
    05:00 +2°C° 0 mm 6 mps 746 mmHg 65%
    06:00 +3°C° 0 mm 6 mps 746 mmHg 64%
    07:00 +3°C° 0 mm 6 mps 747 mmHg 63%
    08:00 +4°C° 0.1 mm 6 mps 746 mmHg 61%
    09:00 +5°C° 0.1 mm 6 mps 746 mmHg 58%
    10:00 +8°C° 0.1 mm 6 mps 746 mmHg 56%
    11:00 +8°C° 0.3 mm 6 mps 746 mmHg 56%
    12:00 +9°C° 0.3 mm 7 mps 746 mmHg 56%
    13:00 +10°C° 0.3 mm 7 mps 745 mmHg 57%
    14:00 +9°C° 0.4 mm 7 mps 745 mmHg 60%
    15:00 +9°C° 0.4 mm 7 mps 745 mmHg 63%
    16:00 +8°C° 0.4 mm 7 mps 745 mmHg 66%
    17:00 +8°C° 0.9 mm 7 mps 746 mmHg 68%
    18:00 +6°C° 0.9 mm 7 mps 746 mmHg 70%
    19:00 +7°C° 0.9 mm 6 mps 746 mmHg 71%
    20:00 +6°C° 0.5 mm 7 mps 746 mmHg 70%
    21:00 +5°C° 0.5 mm 7 mps 745 mmHg 70%
    22:00 +5°C° 0.5 mm 7 mps 745 mmHg 69%
    23:00 +6°C° 0.3 mm 8 mps 745 mmHg 66%
    Show more